Notices

What's New in latest Release from April 7th, 2021:

- Updated Glossary, including Speed of Maximum Gust, and Total Hourly Precipitation

- Updated national and regional climate services offices contacts and prices information

- Addition of station inventory lists for 1981-2010, 1971-2000, and 1961-1990 Normals.

If you haven't already, please take our survey and provide feedback about our website: https://eccc.sondage-survey.ca/f/LanguageSelection.aspx?s=442ca660-fcf1-47c0-95a9-59707d6fd709

Hourly Data Report for October 05, 2019

SAINT JOHN A
NEW BRUNSWICK
Current Station Operator: NAVCAN

45°18'58.000" N
65°53'24.000" W
108.80 m
8104901
71609
YSJ

Download Data

Hourly Data (October 2019)
Hourly Data Report for October 5, 2019
TIME
LST
Temp Definition
°C
Dew Point Definition
°C
Rel Hum Definition
%
Precip. Amount Definition
mm

Wind Dir Definition
10's deg

Wind Spd Definition
km/h
Visibility Definition
km
Stn Press Definition
kPa
Hmdx Definition


Wind Chill Definition


Weather Definition


00:00 3.4 0.1 79   32 26 24.1 100.58     LegendNANA
01:00 3.1 0.1 81   32 22 24.1 100.66     LegendNANA
02:00 2.7 0.2 84   32 22 24.1 100.70     Clear
03:00 2.3 0.3 86   33 21 24.1 100.74     LegendNANA
04:00 2.2 0.2 87   33 21 24.1 100.81     LegendNANA
05:00 2.5 0.2 85   33 22 24.1 100.90     Clear
06:00 2.1 0.2 87   33 18 24.1 100.99     LegendNANA
07:00 2.0 0.4 90   32 13 24.1 101.05     LegendNANA
08:00 4.2 0.8 79   31 17 24.1 101.12     Mainly Clear
09:00 5.9 0.9 70   33 25 24.1 101.19     LegendNANA
10:00 6.7 0.8 66   32 30 24.1 101.22     LegendNANA
11:00 8.2 0.6 59   35 25 24.1 101.19     Mainly Clear
12:00 9.6 0.1 51   31 22 24.1 101.16     LegendNANA
13:00 11.2 0.5 47   32 24 24.1 101.12     LegendNANA
14:00 12.1 0.4 44   33 28 24.1 101.10     Clear
15:00 12.7 1.8 47   31 19 24.1 101.10     LegendNANA
16:00 12.5 1.0 45   30 17 24.1 101.11     LegendNANA
17:00 11.7 1.2 48   31 15 24.1 101.14     Clear
18:00 9.6 1.7 58   28 10 24.1 101.17     LegendNANA
19:00 7.5 2.4 70   25 9 24.1 101.19     LegendNANA
20:00 4.0 1.4 83   25 5 24.1 101.23     Clear
21:00 4.5 2.0 84   29 9 24.1 101.30     LegendNANA
22:00 4.2 2.1 86   32 11 24.1 101.35     LegendNANA
23:00 3.4 1.1 85   19 4 24.1 101.36     Clear

Notes on Data Quality.

Legend

  • E = Estimated
  • M = Missing
  • NA = Not Available*
  • [empty] = Indicates an unobserved value
Date modified: